User: anonymous   Login
Location: Unspecified
(0.0000°N, 0.0000°E)
Time: 23:20:55
(UTC+00:00)
Language:

AAUSAT3 - Orbit

View from above orbital plane
View from above orbital plane
View from above satellite
View from above satellite

Ground track
Ground track

The orbit data is extracted from the following two-line orbital elements,

1 39087U 13009B   18051.43064029  .00000099  00000-0  49465-4 0  9993
2 39087  98.5300 259.2498 0011289 285.9621  74.0326 14.35591767261130
Epoch (UTC): 20 February 2018 10:20:07
Eccentricity: 0.0011289
inclination: 98.5300°
perigee height: 765 km
apogee height: 781 km
right ascension of ascending node: 259.2498°
argument of perigee: 285.9621°
revolutions per day: 14.35591767
mean anomaly at epoch: 74.0326°
orbit number at epoch: 26113

The dashed part of the orbit path shows where the satellite is in the earth's shadow,  

DLR